Golden Triangle, MS

12:02 AM CDT on May 24, 2017 (GMT -0500)
Golden Triangle Regional

Weather History for KGTR - January, 2013

Change the Weather History Date:

Friday, January 11, 2013

  Actual Average Record
Temperature  
Mean Temperature 64 °F -  
Max Temperature 66 °F 51 °F 75 °F (2005)
Min Temperature 62 °F 33 °F 12 °F (1997)
Degree Days  
Heating Degree Days 1    
Growing Degree Days 14 (Base 50)    
Moisture  
Dew Point 62 °F    
Average Humidity 91    
Maximum Humidity 94    
Minimum Humidity 83    
Precipitation  
Precipitation 0.00 in - - ()
Sea Level Pressure  
Sea Level Pressure 30.04 in    
Wind  
Wind Speed 10 mph (South)    
Max Wind Speed 15 mph    
Max Gust Speed 22 mph    
Visibility 8 miles    
Events Fog    
Averages and records for this station are not official NWS values.
T = Trace of Precipitation, MM = Missing Value Source: NWS Daily Summary

Daily Weather History Graph

Daily Weather History Graph

Search for Another Location

Airport or City:

Trip Planner

Search our weather history database for the weather conditions in past years. The results will help you decide how hot, cold, wet, or windy it might be!

Date:

Astronomy

Jan. 11, 2013 Rise Set
Actual Time 6:58 AM CST 5:06 PM CST
Civil Twilight 6:31 AM CST 5:33 PM CST
Nautical Twilight 6:01 AM CST 6:03 PM CST
Astronomical Twilight 5:31 AM CST 6:33 PM CST
Moon 6:33 AM CST (1/11) 5:20 PM CST (1/11)
Length of Visible Light 11h 01m
Length of Day
10h 07m
Waning Crescent, 0% of the Moon is Illuminated
Jan 11
Waning Crescent
Jan 11
New
Jan 18
First Quarter
Jan 26
Full
Feb 3
Last Quarter

Hourly Weather History & Observations

Time (CST) Temp. Dew Point Humidity Pressure Visibility Wind Dir Wind Speed Gust Speed Precip Events Conditions
12:15 AM 66.2 °F 62.6 °F 88% 30.04 in 10.0 mi South 12.7 mph - N/A   Overcast
12:35 AM 66.2 °F 60.8 °F 83% 30.04 in 10.0 mi South 13.8 mph - N/A   Overcast
12:55 AM 66.2 °F 60.8 °F 83% 30.04 in 10.0 mi SSW 15.0 mph 21.9 mph N/A   Overcast
1:15 AM 64.4 °F 60.8 °F 88% 30.04 in 10.0 mi SSW 10.4 mph - N/A   Overcast
1:35 AM 64.4 °F 60.8 °F 88% 30.05 in 10.0 mi SSW 9.2 mph - N/A   Overcast
1:55 AM 64.4 °F 60.8 °F 88% 30.05 in 10.0 mi South 10.4 mph - N/A   Overcast
2:15 AM 64.4 °F 60.8 °F 88% 30.05 in 10.0 mi South 10.4 mph 18.4 mph N/A   Overcast
2:35 AM 64.4 °F 60.8 °F 88% 30.05 in 10.0 mi South 10.4 mph - N/A   Overcast
2:55 AM 64.4 °F 60.8 °F 88% 30.05 in 10.0 mi South 10.4 mph - N/A   Overcast
3:15 AM 64.4 °F 60.8 °F 88% 30.04 in 10.0 mi South 11.5 mph - N/A   Overcast
3:35 AM 64.4 °F 60.8 °F 88% 30.04 in 10.0 mi SSW 9.2 mph - N/A   Overcast
3:55 AM 64.4 °F 60.8 °F 88% 30.03 in 10.0 mi South 10.4 mph - N/A   Overcast
4:15 AM 62.6 °F 60.8 °F 94% 30.04 in 10.0 mi South 9.2 mph - N/A   Overcast
4:35 AM 62.6 °F 60.8 °F 94% 30.04 in 8.0 mi South 9.2 mph - N/A   Overcast
4:55 AM 62.6 °F 60.8 °F 94% 30.05 in 3.0 mi South 8.1 mph - N/A   Overcast
5:15 AM 62.6 °F 60.8 °F 94% 30.05 in 4.0 mi SSE 6.9 mph - N/A   Overcast
5:35 AM 62.6 °F 60.8 °F 94% 30.05 in 5.0 mi SSE 6.9 mph - N/A   Overcast
5:50 AM 62.6 °F 60.8 °F 94% 30.05 in 7.0 mi SE 9.2 mph - N/A   Overcast
6:55 AM 62.6 °F 59.0 °F 88% 30.07 in 8.0 mi South 6.9 mph - N/A   Overcast
7:55 AM 62.6 °F 60.8 °F 94% 30.08 in 9.0 mi SSE 6.9 mph - N/A   Overcast
8:30 AM 62.6 °F 60.8 °F 94% 30.09 in 8.0 mi SE 6.9 mph - N/A   Overcast
8:55 AM 62.6 °F 60.8 °F 94% 30.09 in 8.0 mi East 9.2 mph - N/A   Overcast
9:55 AM 64.4 °F 60.8 °F 88% 30.11 in 4.0 mi SSE 9.2 mph - N/A   Overcast
10:50 AM 64.4 °F 62.6 °F 94% 30.09 in 6.0 mi SSE 11.5 mph - N/A   Overcast
11:50 AM 66.2 °F 62.6 °F 88% 30.07 in 7.0 mi SSE 11.5 mph - N/A   Overcast
12:50 PM 64.4 °F 62.6 °F 94% 30.05 in 10.0 mi SSE 11.5 mph - N/A   Overcast
1:15 PM 66.2 °F 62.6 °F 88% 30.04 in 10.0 mi South 11.5 mph - N/A   Overcast
1:55 PM 66.2 °F 60.8 °F 83% 30.04 in 10.0 mi South 9.2 mph - N/A   Overcast
2:50 PM 66.2 °F 62.6 °F 88% 30.03 in 10.0 mi South 6.9 mph - N/A   Overcast
3:50 PM 64.4 °F 60.8 °F 88% 30.03 in 10.0 mi South 9.2 mph - N/A   Mostly Cloudy
4:30 PM 64.4 °F 60.8 °F 88% 30.03 in 10.0 mi SSE 6.9 mph - N/A   Overcast
4:45 PM 64.4 °F 60.8 °F 88% 30.02 in 10.0 mi South 5.8 mph - N/A   Overcast
5:15 PM 64.4 °F 60.8 °F 88% 30.03 in 10.0 mi South 5.8 mph - N/A   Overcast
5:45 PM 64.4 °F 60.8 °F 88% 30.04 in 10.0 mi Calm Calm - N/A   Overcast
6:45 PM 64.4 °F 60.8 °F 88% 30.04 in 10.0 mi SSE 5.8 mph - N/A   Overcast
7:45 PM 64.4 °F 62.6 °F 94% 30.04 in 0.2 mi SSE 5.8 mph - N/A Fog Fog
7:55 PM 64.4 °F 62.6 °F 94% 30.04 in 0.5 mi SSE 6.9 mph - N/A   Overcast
8:15 PM 64.4 °F 62.6 °F 94% 30.04 in 1.5 mi SSE 5.8 mph - N/A   Overcast
8:55 PM 66.2 °F 64.4 °F 94% 30.03 in 3.0 mi SSE 6.9 mph - N/A   Overcast
9:15 PM 66.2 °F 64.4 °F 94% 30.02 in 10.0 mi SSE 9.2 mph - N/A   Overcast
9:35 PM 66.2 °F 64.4 °F 94% 30.03 in 10.0 mi SSE 6.9 mph - N/A   Overcast
9:55 PM 66.2 °F 64.4 °F 94% 30.03 in 10.0 mi SSE 8.1 mph - N/A   Overcast
10:16 PM 66.2 °F 64.4 °F 94% 30.03 in 10.0 mi South 9.2 mph - N/A   Overcast
10:35 PM 66.2 °F 64.4 °F 94% 30.03 in 10.0 mi SSE 10.4 mph - N/A   Overcast
10:55 PM 66.2 °F 64.4 °F 94% 30.02 in 10.0 mi SSE 11.5 mph - N/A   Mostly Cloudy
11:15 PM 66.2 °F 62.6 °F 88% 30.03 in 10.0 mi SSE 9.2 mph - N/A   Scattered Clouds
11:35 PM 66.2 °F 64.4 °F 94% 30.03 in 10.0 mi South 9.2 mph - N/A   Mostly Cloudy
11:55 PM 66.2 °F 64.4 °F 94% 30.03 in 10.0 mi South 11.5 mph - N/A   Overcast